Regional Weather Roundup
Issued by NWS Columbia, SC

Home | Current Version | Previous Version | Text Only | Print | Product List | Glossary On
Versions: 1 2 3 4 5 6 7 8 9 10 11 12 13 14 15 16 17 18 19 20 21 22 23 24 25 26 27 28 29 30 31 32 33 34 35 36 37 38 39 40 41 42 43 44 45 46 47 48 49 50
000
ASUS42 KCAE 120610
RWRCAE
REGIONAL WEATHER ROUNDUP
NATIONAL WEATHER SERVICE COLUMBIA SC
100 AM EST TUE DEC 12 2017

NOTE: "FAIR" INDICATES FEW OR NO CLOUDS BELOW 12,000 FEET WITH NO
SIGNIFICANT WEATHER AND/OR OBSTRUCTIONS TO VISIBILITY.

NOT ALL STATIONS ARE QUALITY CONTROLLED BY THE NATIONAL
WEATHER SERVICE. USE DATA WITH CAUTION...ESPECIALLY
DEWPOINT OBSERVATIONS.

SCZ001>056-GAZ040-063>065-077-120700-
...UPSTATE SOUTH CAROLINA...

CITY           SKY/WX    TMP DP  RH WIND       PRES   REMARKS
ANDERSON       CLEAR     45  34  65 SW12      29.89F
6HR MIN TEMP:  41; 6HR MAX TEMP:  47;

LIBERTY        CLEAR     43  32  67 W6        29.86F
6HR MIN TEMP:  42; 6HR MAX TEMP:  49;

SPARTANBURG    CLEAR     43  32  65 SW7       29.85F
CLEMSON        CLEAR     43  33  68 W7        29.88F
6HR MIN TEMP:  42; 6HR MAX TEMP:  51;

GREENVILLE     CLEAR     44  31  60 W3        29.87F
6HR MIN TEMP:  44; 6HR MAX TEMP:  53;

GREENWOOD      CLEAR     42  35  76 SW9       29.92F
6HR MIN TEMP:  42; 6HR MAX TEMP:  49;

GREER          CLEAR     42  32  67 SW10      29.87F
6HR MIN TEMP:  42; 6HR MAX TEMP:  48;

ROCK HILL      CLEAR     40  33  76 SW8       29.86F WCI  34
6HR MIN TEMP:  37; 6HR MAX TEMP:  46;

CHESTER        CLEAR     41  32  70 SW3       29.88F
LAURENS        CLEAR     43  34  70 SW8       29.90S


...CENTRAL SOUTH CAROLINA...

CITY           SKY/WX    TMP DP  RH WIND       PRES   REMARKS
COLUMBIA APT   CLEAR     46  37  71 SW8       29.92F
6HR MIN TEMP:  39; 6HR MAX TEMP:  49;

COLUMBIA OWENS CLEAR     47  35  63 W5        29.93F
6HR MIN TEMP:  38; 6HR MAX TEMP:  47;

MCENTIRE ANGB  CLEAR     44  35  69 SW5       29.92F
6HR MIN TEMP:  35; 6HR MAX TEMP:  45;

ORANGEBURG     CLEAR     40  34  79 SW7       29.95F
6HR MIN TEMP:  39; 6HR MAX TEMP:  45;

SUMTER SHAW    CLEAR     46  35  67 S7        29.90F
6HR MIN TEMP:  40; 6HR MAX TEMP:  46;

NEWBERRY       CLEAR     45  36  70 SW9       29.93F
AIKEN          FAIR      43  34  70 SW6       29.97F
BARNWELL         N/A     46  37  71 SW6       29.96F
MANNING        FAIR      46  28  49 MISG      29.95F
CAMDEN         FAIR      39  34  81 CALM      29.91F
LANCASTER      CLEAR     39  36  87 SW7       29.89F WCI  34
WINNSBORO      CLEAR     46  36  66 SW9       29.90F


...EASTERN AND COASTAL SOUTH CAROLINA...

CITY           SKY/WX    TMP DP  RH WIND       PRES   REMARKS
MYRTLE BEACH   CLEAR     47  38  71 SW7       29.98F
6HR MIN TEMP:  41; 6HR MAX TEMP:  48;

N MYRTLE BCH   CLEAR     48  40  73 SW9       29.96F
6HR MIN TEMP:  37; 6HR MAX TEMP:  49;

CONWAY         FAIR      34  34 100 S3        29.96F
MARION         FAIR      39  34  81 S7        29.94F WCI  34
HARTSVILLE     FAIR      37  34  87 SW3       29.89F
FLORENCE       CLEAR     40  35  83 S8        29.92F WCI  34
6HR MIN TEMP:  38; 6HR MAX TEMP:  43;

DARLINGTON     CLEAR     40  35  83 S7        29.91F
6HR MIN TEMP:  38; 6HR MAX TEMP:  43;

CHARLESTON APT CLEAR     45  39  79 SW9       29.98F
6HR MIN TEMP:  40; 6HR MAX TEMP:  47;

MOUNT PLEASANT FAIR      52  39  62 SW9       29.99F
WALTERBORO     CLEAR     43  36  75 SW5       29.98F
BEAUFORT       CLEAR     43  39  86 SW8       30.01F
6HR MIN TEMP:  43; 6HR MAX TEMP:  49;



...EASTERN GEORGIA...

CITY           SKY/WX    TMP DP  RH WIND       PRES   REMARKS
AUGUSTA BUSH F CLEAR     46  36  68 SW8       29.95F
6HR MIN TEMP:  39; 6HR MAX TEMP:  48;

AUGUSTA DANIEL CLEAR     50  36  58 SW7       29.94F
6HR MIN TEMP:  50; 6HR MAX TEMP:  53;

THOMSON        CLEAR     43  36  75 W6        29.99F
6HR MIN TEMP:  40; 6HR MAX TEMP:  45;

CLAXTON        FAIR      46  39  77 CALM      30.02F
6HR MIN TEMP:  41; 6HR MAX TEMP:  46;

SYLVANIA       CLEAR     48  39  72 SW5       30.00F
6HR MIN TEMP:  46; 6HR MAX TEMP:  49;

STATESBORO     CLEAR     47  35  62 SW7       29.99F
6HR MIN TEMP:  40; 6HR MAX TEMP:  48;

SAVANNAH       CLEAR     47  37  68 SW9       30.03F
6HR MIN TEMP:  44; 6HR MAX TEMP:  49;



...SOUTHERN NORTH CAROLINA...

CITY           SKY/WX    TMP DP  RH WIND       PRES   REMARKS
CHARLOTTE      CLEAR     42  35  76 SW5       29.86F
6HR MIN TEMP:  39; 6HR MAX TEMP:  47;

MONROE         CLEAR     44  35  70 SW12      29.85F
6HR MIN TEMP:  39; 6HR MAX TEMP:  46;

WADESBORO      CLEAR     43  32  65 S6        29.87F
RUTHERFORDTON  PTCLDY    36  31  82 E3        29.84F
ASHEVILLE      PTCLDY    31  28  89 N6        29.84F WCI  25
6HR MIN TEMP:  30; 6HR MAX TEMP:  41;


$$



USA.gov is the U.S. government's official web portal to all federal, state and local government web resources and services.